Flag for Rwanda Weather past 2 weeks in Gitarama, Rwanda

Now
82 °F

Scattered clouds.


Feels Like: 83 °F
Forecast: 62 / 89 °F
Wind: 5 mph from Southeast

Location: Kigali Airport

Current Time: Jan 29, 2015 at 1:02:07 PM

Latest Report: Jan 29, 2015 at 12:30 PM


Visibility: N/A

Pressure: 30.07 "Hg

Humidity: 48%

Dew point: 61 °F

Location of GitaramaLocation

Historic Weather in Gitarama — Graph

°F

Gitarama temperature yesterday

Maximum temperature yesterday: 88 °F (at 2:30 PM)
Minimum temperature yesterday: 66 °F (at 5:30 AM)
Average temperature yesterday: 76 °F

Past Weeks' High & Low Weather Summary

 TemperatureHumidityPressure
High88 °F (Jan 14, 1:00 PM)100% (Jan 19, 4:00 AM)30.24 "Hg (Jan 19, 4:00 AM)
Low59 °F (Jan 23, 3:30 AM)29% (Jan 17, 2:30 PM)29.95 "Hg (Jan 28, 3:00 PM)
Average72 °F75%30.10 "Hg
* Reported Jan 14 12:30 PM — Jan 29 12:00 Noon, Gitarama, Weather by CustomWeather, © 2014

Note: Actual official high and low records may vary slightly from our data, if they occured in-between our weather recording intervals... More about our weather records

Advertising

Gitarama weather history for previous 24 hours

 ConditionsComfort  
Time TempWeatherWind HumidityBarometerVisibility
12:00 PM
Jan 29
81 °FScattered clouds.7 mph58%30.07 "HgN/A
11:30 AM81 °FPassing clouds.7 mph58%30.09 "HgN/A
11:00 AM79 °FPassing clouds.3 mph65%30.09 "Hg5 mi
10:30 AM79 °FPassing clouds.3 mph65%30.12 "Hg5 mi
10:00 AM77 °FPassing clouds.No wind65%30.12 "Hg5 mi
9:30 AM73 °FScattered clouds.No wind69%30.12 "Hg5 mi
9:00 AM72 °FScattered clouds.No wind78%30.12 "Hg5 mi
8:30 AM68 °FBroken clouds.No wind88%30.12 "Hg5 mi
7:30 AM66 °FScattered clouds.3 mph94%30.09 "HgN/A
6:30 AM63 °FScattered clouds.3 mph100%30.09 "HgN/A
5:30 AM64 °FPassing clouds.3 mph94%30.07 "HgN/A
5:00 AM64 °FPassing clouds.3 mph94%30.07 "HgN/A
4:00 AM66 °FPassing clouds.3 mph88%30.07 "HgN/A
3:30 AM66 °FPassing clouds.3 mph88%30.04 "HgN/A
3:00 AM66 °FPassing clouds.3 mph88%30.04 "HgN/A
2:30 AM66 °FPassing clouds.3 mph88%30.04 "HgN/A
2:00 AM66 °FPassing clouds.3 mph83%30.04 "HgN/A
1:30 AM68 °FPassing clouds.N/A83%30.04 "HgN/A
12:30 AM70 °FPassing clouds.N/A78%30.04 "HgN/A
12:00 AM70 °FPassing clouds.N/A78%30.04 "HgN/A
11:30 PM
Jan 28
70 °FPassing clouds.No wind73%30.07 "HgN/A
11:00 PM72 °FPassing clouds.No wind69%30.07 "HgN/A
10:30 PM72 °FPassing clouds.3 mph69%30.07 "HgN/A
10:00 PM73 °FPassing clouds.3 mph69%30.07 "HgN/A
9:30 PM73 °FPassing clouds.3 mph69%30.04 "HgN/A
9:00 PM75 °FPassing clouds.3 mph65%30.04 "HgN/A
8:30 PM79 °FPassing clouds.3 mph45%30.01 "HgN/A
8:00 PM79 °FPassing clouds.No wind45%30.01 "HgN/A
7:30 PM81 °FPassing clouds.3 mph42%29.98 "HgN/A
7:00 PM81 °FPassing clouds.6 mph42%29.98 "HgN/A
5:30 PM84 °FPassing clouds.6 mph43%29.95 "HgN/A
5:00 PM84 °FPassing clouds.10 mph43%29.95 "HgN/A
4:30 PM86 °FScattered clouds.8 mph40%29.95 "HgN/A
4:00 PM88 °FScattered clouds.8 mph33%29.95 "HgN/A
3:30 PM86 °FScattered clouds.7 mph38%29.95 "HgN/A
3:00 PM86 °FScattered clouds.8 mph35%29.95 "HgN/A
2:30 PM88 °FScattered clouds.6 mph40%29.98 "HgN/A
2:00 PM86 °FScattered clouds.6 mph43%30.01 "HgN/A
1:30 PM86 °FScattered clouds.7 mph43%30.01 "HgN/A
1:00 PM86 °FScattered clouds.3 mph43%30.04 "HgN/A
Weather by CustomWeather, © 2014

See weather overviewHow to use our weather pages